| time (UTC) | temp C | wind direction | speed KPH | gust KPH | rain 1hr cm | rain 24hr cm | rain mn cm | humidity % | barometer mb |
| 20260506013645 | 2 | 222 | 3.2 | 14.5 | 0.03 | 0.51 | 0.00 | 1006.7 | |
| 20260506012109 | 2 | 222 | 3.2 | 11.3 | 0.03 | 0.51 | 0.00 | 1006.7 | |
| 20260506012107 | 2 | 222 | 3.2 | 11.3 | 0.03 | 0.51 | 0.00 | 1006.7 | |
| 20260506010531 | 2 | 222 | 1.6 | 6.4 | 0.00 | 0.51 | 0.00 | 1006.8 | |
| 20260505224436 | 3 | 222 | 0.0 | 1.6 | 0.00 | 0.51 | 0.00 | 1005.3 | |
| 20260505224430 | 3 | 222 | 0.0 | 1.6 | 0.00 | 0.51 | 0.00 | 1005.3 | |
| 20260505202329 | 3 | 315 | 1.6 | 9.7 | 0.10 | 0.46 | 0.00 | 1005.3 | |
| 20260505195215 | 3 | 315 | 1.6 | 9.7 | 0.08 | 0.46 | 0.00 | 1005.3 | |
| 20260505195210 | 3 | 315 | 1.6 | 9.7 | 0.08 | 0.46 | 0.00 | 1005.3 | |
| 20260505181813 | 6 | 222 | 8.0 | 20.9 | 0.00 | 0.00 | 0.00 | 1003.4 | |
| 20260505180236 | 6 | 315 | 4.8 | 16.1 | 0.00 | 0.00 | 0.00 | 1002.1 | |
| 20260505174658 | 7 | 270 | 1.6 | 6.4 | 0.00 | 0.00 | 0.00 | 1001.8 | |
| 20260505173121 | 7 | 45 | 3.2 | 11.3 | 0.00 | 0.00 | 0.00 | 1001.7 | |
| 20260505171534 | 7 | 90 | 3.2 | 14.5 | 0.00 | 0.00 | 0.00 | 1001.6 | |
| 20260505165956 | 7 | 90 | 1.6 | 4.8 | 0.00 | 0.00 | 0.00 | 1001.5 | |
| 20260505162842 | 8 | 0 | 3.2 | 11.3 | 0.00 | 0.00 | 0.00 | 1001.4 | |
| 20260505161255 | 8 | 90 | 1.6 | 4.8 | 0.00 | 0.00 | 0.00 | 1001.3 | |
| 20260505152604 | 8 | 0 | 3.2 | 11.3 | 0.00 | 0.00 | 0.00 | 1001.0 | |
| 20260505124924 | 9 | 135 | 3.2 | 12.9 | 0.00 | 0.00 | 0.00 | 1002.6 | |
| 20260505123346 | 9 | 45 | 3.2 | 11.3 | 0.00 | 0.00 | 0.00 | 1002.4 | |
| 20260505121809 | 9 | 45 | 4.8 | 12.9 | 0.00 | 0.00 | 0.00 | 1002.5 | |
| 20260505120222 | 10 | 180 | 3.2 | 12.9 | 0.00 | 0.00 | 0.00 | 1001.6 | |
| 20260505114645 | 9 | 0 | 3.2 | 12.9 | 0.00 | 0.00 | 0.00 | 1001.8 | |
| 20260505113108 | 9 | 0 | 4.8 | 12.9 | 0.00 | 0.00 | 0.00 | 1002.0 | |
| 20260505111531 | 10 | 90 | 3.2 | 11.3 | 0.00 | 0.00 | 0.00 | 1001.8 | |
| 20260505095706 | 9 | 90 | 3.2 | 11.3 | 0.00 | 0.00 | 0.00 | 1003.0 | |
| 20260505095704 | 9 | 90 | 3.2 | 11.3 | 0.00 | 0.00 | 0.00 | 1003.0 | |
| 20260505094128 | 9 | 135 | 3.2 | 11.3 | 0.00 | 0.00 | 0.00 | 1003.3 | |
| 20260505092551 | 8 | 90 | 3.2 | 12.9 | 0.00 | 0.00 | 0.00 | 1003.4 | |
| 20260505091014 | 9 | 0 | 3.2 | 11.3 | 0.00 | 0.00 | 0.00 | 1003.5 | |
| 20260505085427 | 9 | 90 | 3.2 | 9.7 | 0.00 | 0.00 | 0.00 | 1003.6 | |
| 20260505083849 | 8 | 0 | 1.6 | 11.3 | 0.00 | 0.00 | 0.00 | 1003.5 | |
| 20260505083845 | 8 | 0 | 1.6 | 11.3 | 0.00 | 0.00 | 0.00 | 1003.5 | |
| 20260505080735 | -17 | 270 | 1.6 | 4.8 | 15.24 | 15.24 | 0.00 | ||
| 20260505075148 | 8 | 0 | 1.6 | 4.8 | 0.00 | 0.00 | 0.00 | 1004.8 | |
| 20260505072034 | 8 | 222 | 1.6 | 4.8 | 0.00 | 0.00 | 0.00 | 1004.9 | |
| 20260505063333 | 7 | 315 | 1.6 | 6.4 | 0.00 | 0.00 | 0.00 | 1005.4 | |
| 20260505061755 | 6 | 0 | 1.6 | 4.8 | 0.00 | 0.00 | 0.00 | 1005.7 | |
| 20260505053055 | 4 | 90 | 1.6 | 6.4 | 0.00 | 0.00 | 0.00 | 1007.0 | |
| 20260505051518 | 3 | 45 | 1.6 | 4.8 | 0.00 | 0.00 | 0.00 | 1007.1 | |
| 20260505035701 | 3 | 45 | 1.6 | 4.8 | 0.00 | 0.00 | 0.00 | 1008.6 | |
| 20260505035657 | 3 | 45 | 1.6 | 4.8 | 0.00 | 0.00 | 0.00 | 1008.6 | |
| 20260505020722 | 3 | 315 | 0.0 | 0.0 | 0.00 | 0.00 | 0.00 | 10.0 | |
| 20260505020717 | 3 | 315 | 0.0 | 0.0 | 0.00 | 0.00 | 0.00 | 1008.4 |